User: anonymous   Login
Location: ???????
(55.4362°N, 38.1183°E)
Time: 23:17:02
(UTC+00:00)
Language:

Cosmos 1707 - Orbit

View from above orbital plane
View from above orbital plane
View from above satellite
View from above satellite

Ground track
Ground track

The orbit data is extracted from the following two-line orbital elements,

1 16326U 85113A   21271.05014464  .00001130  00000-0  59099-4 0  9994
2 16326  82.5075 110.2317 0008929 300.2683  59.7665 15.14837820953691
Epoch (UTC): 28 September 2021 01:12:12
Eccentricity: 0.0008929
inclination: 82.5075°
perigee height: 515 km
apogee height: 527 km
right ascension of ascending node: 110.2317°
argument of perigee: 300.2683°
revolutions per day: 15.14837820
mean anomaly at epoch: 59.7665°
orbit number at epoch: 95369

The dashed part of the orbit path shows where the satellite is in the earth's shadow,  

DLR